Change the Weather History Date:

Wednesday, May 8, 2013

  Actual Average Record
Temperature  
Mean Temperature 72 °F 79 °F  
Max Temperature 83 °F 93 °F 109 °F (1895)
Min Temperature 61 °F 66 °F 48 °F (1964)
Degree Days  
Heating Degree Days 0 0  
Month to date heating degree days 0 0  
Since 1 July heating degree days 705 686  
Cooling Degree Days 7 14  
Month to date cooling degree days 105 106  
Year to date cooling degree days 624 512  
Growing Degree Days 22 (Base 50)    
Moisture  
Dew Point 38 °F    
Average Humidity 31    
Maximum Humidity 46    
Minimum Humidity 16    
Precipitation  
Precipitation 0.00 in 0.00 in 0.80 in (1912)
Month to date precipitation 0.00 0.02  
Year to date precipitation 1.11 1.26  
Sea Level Pressure  
Sea Level Pressure 29.96 in    
Wind  
Wind Speed 6 mph (WNW)    
Max Wind Speed 13 mph    
Max Gust Speed 20 mph    
Visibility 10 miles    
Events      
T = Trace of Precipitation, MM = Missing Value Source: NWS Daily Summary

Daily Weather History Graph

Daily Weather History Graph

Search for Another Location

Airport or City:

Trip Planner

Search our weather history database for the weather conditions in past years. The results will help you decide how hot, cold, wet, or windy it might be!

Date:

Astronomy

May. 08, 2013 Rise Set
Actual Time 5:44 AM MST 7:25 PM MST
Civil Twilight 5:18 AM MST 7:52 PM MST
Nautical Twilight 4:46 AM MST 8:24 PM MST
Astronomical Twilight 4:12 AM MST 8:58 PM MST
Moon 4:51 AM MST (5/8) 6:29 PM MST (5/8)
Length of Visible Light 14h 33m
Length of Day
13h 40m
Waning Crescent, 1% of the Moon is Illuminated
May 8
Waning Crescent
May 9
New
May 17
First Quarter
May 24
Full
May 31
Last Quarter

Hourly Weather History & Observations

Time (MST) Temp. Dew Point Humidity Pressure Visibility Wind Dir Wind Speed Gust Speed Precip Events Conditions
12:57 AM 64.0 °F 39.9 °F 41% 29.97 in 10.0 mi WNW 4.6 mph - N/A   Partly Cloudy
1:57 AM 62.1 °F 39.9 °F 44% 29.95 in 10.0 mi WNW 6.9 mph - N/A   Scattered Clouds
2:57 AM 62.1 °F 39.0 °F 43% 29.96 in 10.0 mi WNW 4.6 mph - N/A   Mostly Cloudy
3:57 AM 63.0 °F 39.0 °F 41% 29.96 in 10.0 mi NNW 9.2 mph - N/A   Scattered Clouds
4:57 AM 62.1 °F 39.9 °F 44% 29.96 in 10.0 mi NW 5.8 mph - N/A   Scattered Clouds
5:57 AM 62.1 °F 39.9 °F 44% 29.98 in 10.0 mi NW 9.2 mph 17.3 mph N/A   Mostly Cloudy
6:57 AM 63.0 °F 41.0 °F 45% 29.99 in 10.0 mi NW 5.8 mph - N/A   Mostly Cloudy
7:57 AM 64.9 °F 41.0 °F 42% 30.01 in 10.0 mi Calm Calm - N/A   Mostly Cloudy
8:57 AM 68.0 °F 41.0 °F 37% 30.02 in 10.0 mi WNW 3.5 mph - N/A   Mostly Cloudy
9:57 AM 71.1 °F 39.9 °F 32% 30.03 in 10.0 mi West 11.5 mph - N/A   Mostly Cloudy
10:57 AM 73.9 °F 39.9 °F 29% 30.02 in 10.0 mi West 8.1 mph - N/A   Mostly Cloudy
11:57 AM 78.1 °F 37.9 °F 24% 30.00 in 10.0 mi West 8.1 mph - N/A   Mostly Cloudy
12:57 PM 79.0 °F 37.9 °F 23% 29.99 in 10.0 mi West 6.9 mph - N/A   Scattered Clouds
1:57 PM 80.1 °F 37.0 °F 21% 29.98 in 10.0 mi West 6.9 mph - N/A   Scattered Clouds
2:57 PM 81.0 °F 34.0 °F 18% 29.95 in 10.0 mi NW 4.6 mph - N/A   Mostly Cloudy
3:57 PM 80.1 °F 32.0 °F 17% 29.93 in 10.0 mi West 4.6 mph - N/A   Mostly Cloudy
4:57 PM 81.0 °F 30.9 °F 16% 29.92 in 10.0 mi West 8.1 mph - N/A   Mostly Cloudy
5:57 PM 82.0 °F 32.0 °F 16% 29.91 in 10.0 mi Variable 4.6 mph - N/A   Mostly Cloudy
6:57 PM 79.0 °F 33.1 °F 19% 29.91 in 10.0 mi WSW 4.6 mph - N/A   Mostly Cloudy
7:57 PM 78.1 °F 32.0 °F 19% 29.91 in 10.0 mi South 3.5 mph - N/A   Scattered Clouds
8:57 PM 75.9 °F 35.1 °F 23% 29.92 in 10.0 mi South 4.6 mph - N/A   Partly Cloudy
9:57 PM 73.9 °F 35.1 °F 24% 29.93 in 10.0 mi SSW 5.8 mph - N/A   Clear
10:57 PM 70.0 °F 44.1 °F 39% 29.95 in 10.0 mi WNW 5.8 mph - N/A   Clear
11:57 PM 68.0 °F 45.0 °F 43% 29.96 in 10.0 mi West 6.9 mph - N/A   Clear